User: anonymous   Login
Location: Vulcan
(50.4000°N, 113.2500°W)
Time: 08:08:08
(UTC-07:00)
Language:

SR - Orbit

View from above orbital plane
View from above orbital plane
View from above satellite
View from above satellite

Ground track
Ground track

The orbit data is extracted from the following two-line orbital elements,

1    46U 60007B   19320.87860565 +.00000002 +00000-0 +23456-4 0  9999
2    46 066.6903 263.6007 0217175 289.6880 068.0913 14.49258249108161
Epoch (UTC): 16 November 2019 21:05:11
Eccentricity: 0.0217175
inclination: 66.6903°
perigee height: 574 km
apogee height: 882 km
right ascension of ascending node: 263.6007°
argument of perigee: 289.6880°
revolutions per day: 14.49258249
mean anomaly at epoch: 68.0913°
orbit number at epoch: 10816

The dashed part of the orbit path shows where the satellite is in the earth's shadow,  

DLR